Starlink 3681

operational
NORAD ID: 51968 Int'l Des: 2022-025 Owner: SPXS Country: US Constellation: starlink
LEOCIRCULARSTARLINK_TYPE

About Starlink 3681

Description loading...

Live Position

Loading 3D Globe...

Upcoming Passes

Altitude History

Altitude vs Time

uPlot chart will show altitude changes over time

Two-Line Element Set

1 51968U 22025N 25259.23473778 -.00000925 00000-0 -43209-4 0 9994
2 51968 53.0549 90.0852 0001400 89.2705 270.8444 15.06400428194684
Epoch: Sep 16, 2025 • Age: 7 hours

Current Status

Altitude 547.5 km
Velocity 7.59 km/s
Sub-Earth Point 22.76°N, 64.7°E
Launch Date Mar 9, 2022
Age 3.5 years
Type internet

Technical Details

Classification Payload
Mass 297.00 kg
Dry Mass 275.00 kg
Total Mass 297.00 kg
Length 0.20 m
Diameter 2.80 m
Span 9.00 m
Shape Box + pan
Manufacturer SPXS
Bus Type Starlink
Phase Status In Orbit
Owner/State SPXS/US

Large Constellations

Loading constellations...